Location: Batang Balui
(2.7000°N, 113.7833°E)
Time: 00:53:45
(UTC+00:00)

FO-29 - Pass Details

Date: 07 April 2023
Orbit: 799 x 1322 km, 98.5° (Epoch: 29 May)

Event Time Altitude Azimuth Distance (km) Brightness Sun altitude
Rises 19:55:45 0° 41° (NE) 3,765 13.2 -37.0°
Reaches altitude 10° 19:59:12 10° 59° (ENE) 2,716 12.5 -36.2°
Maximum altitude 20:03:07 18° 100° (E) 2,094 11.8 -35.2°
Drops below altitude 10° 20:06:47 10° 141° (SE) 2,525 11.9 -34.3°
Sets 20:09:49 0° 160° (SSE) 3,400 12.5 -33.6°
